This demonstration page uses our WeatherBlox Daily Observations layout. Learn more.

36.17497, -115.13722

Hourly Observations for October 28, 2020

Temp ( °F °C ) Dew Point ( °F °C ) Humidity (%) Winds ( mph kmh ) Pressure ( in mb ) Visibility ( mi km ) Precip ( " mm )
12:53 am 00:53 Clear 53 11.7 16 -8.9 23 23 W 8 13 30.1 1019 10 16.0934 0 0
1:53 am 01:53 Clear 53 11.7 16 -8.9 23 23 Calm 30.1 1019 10 16.0934 0 0
2:53 am 02:53 Clear 53 11.7 16 -8.9 23 23 WNW 7 11 30.09 1019 10 16.0934 0 0
3:53 am 03:53 Clear 53 11.7 14 -10 21 21 WNW 9 15 30.09 1019 10 16.0934 0 0
4:53 am 04:53 Clear 50 10 14 -10 24 24 NW 3 6 30.1 1019 10 16.0934 0 0
5:53 am 05:53 Clear 50 10 15 -9.4 25 25 W 5 7 30.12 1020 10 16.0934 0 0
6:53 am 06:53 Clear 50 10 15 -9.4 25 25 WNW 6 9 30.12 1020 10 16.0934 0 0
7:53 am 07:53 Sunny 55 12.8 17 -8.3 22 22 W 6 9 30.14 1021 10 16.0934 0 0
8:53 am 08:53 Sunny 58 14.4 18 -7.8 21 21 S 3 6 30.16 1021 10 16.0934 0 0
9:53 am 09:53 Sunny 61 16.1 19 -7.2 20 20 SSE 3 6 30.16 1021 10 16.0934 0 0
10:53 am 10:53 Sunny 67 19.4 19 -7.2 16 16 Calm 30.14 1021 10 16.0934 0 0
11:53 am 11:53 Sunny 69 20.6 20 -6.7 15 15 ESE 9 15 30.12 1020 10 16.0934 0 0
12:53 pm 12:53 Sunny 72 22.2 19 -7.2 13 13 VRB 5 7 30.08 1019 10 16.0934 0 0
1:53 pm 13:53 Sunny 75 23.9 19 -7.2 12 12 ESE 5 7 30.04 1017 10 16.0934 0 0
2:53 pm 14:53 Sunny 77 25 20 -6.7 12 12 SE 7 11 30.01 1016 10 16.0934 0 0
3:53 pm 15:53 Sunny 77 25 20 -6.7 12 12 SE 7 11 30.01 1016 10 16.0934 0 0
4:53 pm 16:53 Sunny 77 25 19 -7.2 11 11 SSE 7 11 30 1016 10 16.0934 0 0
5:53 pm 17:53 Clear 75 23.9 21 -6.1 13 13 SSW 5 7 30.01 1016 10 16.0934 0 0
6:53 pm 18:53 Clear 69 20.6 21 -6.1 16 16 Calm 30.03 1017 10 16.0934 0 0
7:53 pm 19:53 Clear 67 19.4 22 -5.6 18 18 ENE 5 7 30.04 1017 10 16.0934 0 0
8:53 pm 20:53 Clear 62 16.7 24 -4.4 23 23 WNW 8 13 30.05 1018 10 16.0934 0 0
9:53 pm 21:53 Clear 61 16.1 23 -5 23 23 WNW 5 7 30.08 1019 10 16.0934 0 0
10:53 pm 22:53 Clear 59 15 19 -7.2 21 21 NW 7 11 30.08 1019 10 16.0934 0 0
11:53 pm 23:53 Clear 58 14.4 21 -6.1 24 24 W 6 9 30.08 1019 10 16.0934 0 0

Powered by AerisWeather